SVFLIR Weather Reports


Display with metric or nautical units.
time (UTC)temp
F
wind
direction
speed
MPH
gust
MPH
rain 1hr
in
rain 24hr
in
rain mn
in
humidity
%
barometer
mb
20211128083609 39 267 2.0 3.0 0.00 0.00 0.00
20211128083108 43 258 0.0 5.0 0.00 0.00 0.00
20211128082607 40 286 3.0 4.0 0.00 0.00 0.00
20211128082106 43 291 4.0 4.0 0.00 0.00 0.00
20211128081605 43 291 3.0 3.0 0.00 0.00 0.00
20211128081104 43 282 1.0 3.0 0.00 0.00 0.00
20211128080603 44 312 3.0 5.0 0.00 0.00 0.00
20211128080102 44 293 4.0 5.0 0.00 0.00 0.00
20211128075601 45 293 5.0 5.0 0.00 0.00 0.00
20211128075100 45 292 4.0 5.0 0.00 0.00 0.00
20211128074559 45 300 5.0 5.0 0.00 0.00 0.00
20211128074058 45 293 5.0 5.0 0.00 0.00 0.00
20211128073557 46 310 2.0 3.0 0.00 0.00 0.00
20211128073056 41 307 3.0 5.0 0.00 0.00 0.00
20211128072555 41 302 4.0 5.0 0.00 0.00 0.00
20211128072054 42 306 4.0 5.0 0.00 0.00 0.00
20211128071553 43 306 3.0 5.0 0.00 0.00 0.00
20211128071052 44 296 5.0 4.0 0.00 0.00 0.00
20211128070551 44 296 4.0 3.0 0.00 0.00 0.00
20211128070050 42 313 2.0 5.0 0.00 0.00 0.00
20211128065549 44 302 3.0 5.0 0.00 0.00 0.00
20211128065048 46 288 4.0 4.0 0.00 0.00 0.00
20211128064547 45 306 4.0 5.0 0.00 0.00 0.00
20211128064046 45 306 3.0 5.0 0.00 0.00 0.00
20211128063545 46 310 5.0 5.0 0.00 0.00 0.00
20211128063044 45 305 4.0 4.0 0.00 0.00 0.00
20211128062543 46 315 4.0 3.0 0.00 0.00 0.00
20211128062042 46 310 2.0 3.0 0.00 0.00 0.00
20211128061541 44 327 3.0 2.0 0.00 0.00 0.00
20211128061040 45 323 2.0 2.0 0.00 0.00 0.00
20211128060540 44 309 1.0 3.0 0.00 0.00 0.00
20211128060038 45 317 2.0 4.0 0.00 0.00 0.00
20211128055537 46 317 3.0 4.0 0.00 0.00 0.00
20211128055036 47 312 4.0 3.0 0.00 0.00 0.00
20211128054536 48 326 2.0 4.0 0.00 0.00 0.00
20211128054035 50 305 3.0 4.0 0.00 0.00 0.00
20211128053533 50 299 3.0 4.0 0.00 0.00 0.00
20211128053032 50 295 3.0 4.0 0.00 0.00 0.00
20211128052531 50 284 3.0 5.0 0.00 0.00 0.00
20211128052031 48 307 3.0 5.0 0.00 0.00 0.00
20211128051530 50 298 5.0 5.0 0.00 0.00 0.00
20211128051028 46 296 5.0 5.0 0.00 0.00 0.00
20211128050527 47 307 4.0 5.0 0.00 0.00 0.00
20211128050027 49 315 4.0 4.0 0.00 0.00 0.00
20211128045526 52 303 4.0 4.0 0.00 0.00 0.00
20211128045025 52 310 3.0 3.0 0.00 0.00 0.00
20211128044523 49 316 2.0 4.0 0.00 0.00 0.00
20211128044023 49 316 3.0 4.0 0.00 0.00 0.00
20211128043522 51 320 3.0 4.0 0.00 0.00 0.00
20211128043021 48 322 4.0 4.0 0.00 0.00 0.00
20211128042520 50 316 4.0 4.0 0.00 0.00 0.00
20211128042018 51 302 3.0 3.0 0.00 0.00 0.00
20211128041518 50 317 3.0 3.0 0.00 0.00 0.00
20211128041017 50 338 3.0 3.0 0.00 0.00 0.00
20211128040516 49 343 3.0 3.0 0.00 0.00 0.00
20211128040015 50 322 3.0 4.0 0.00 0.00 0.00
20211128035514 51 310 3.0 5.0 0.00 0.00 0.00
20211128035013 47 298 4.0 5.0 0.00 0.00 0.00
20211128034512 49 296 5.0 5.0 0.00 0.00 0.00
20211128034011 46 296 5.0 5.0 0.00 0.00 0.00
20211128033510 48 293 5.0 4.0 0.00 0.00 0.00
20211128033009 48 302 4.0 4.0 0.00 0.00 0.00
20211128032508 49 305 4.0 4.0 0.00 0.00 0.00
20211128032007 44 302 3.0 4.0 0.00 0.00 0.00
20211128031506 45 295 4.0 4.0 0.00 0.00 0.00
20211128031005 45 293 3.0 0.0 0.00 0.00 0.00
20211128030504 47 281 0.0 0.0 0.00 0.00 0.00
20211128030003 46 281 0.0 0.0 0.00 0.00 0.00
20211128025502 49 281 0.0 0.0 0.00 0.00 0.00
20211128025001 49 281 0.0 2.0 0.00 0.00 0.00
20211128024500 48 281 0.0 3.0 0.00 0.00 0.00
20211128023959 48 293 2.0 0.0 0.00 0.00 0.00
20211128023458 48 254 0.0 0.0 0.00 0.00 0.00
20211128022957 48 254 0.0 0.0 0.00 0.00 0.00
20211128022456 49 254 0.0 0.0 0.00 0.00 0.00
20211128021955 50 254 0.0 0.0 0.00 0.00 0.00
20211128021454 52 254 0.0 0.0 0.00 0.00 0.00
20211128020953 53 254 0.0 0.0 0.00 0.00 0.00
20211128020452 53 254 0.0 0.0 0.00 0.00 0.00
20211128015951 54 254 0.0 0.0 0.00 0.00 0.00
20211128015450 51 254 0.0 0.0 0.00 0.00 0.00
20211128014949 51 254 0.0 0.0 0.00 0.00 0.00
20211128014448 51 254 0.0 0.0 0.00 0.00 0.00
20211128013947 54 254 0.0 0.0 0.00 0.00 0.00
20211128013446 56 254 0.0 0.0 0.00 0.00 0.00
20211128012946 57 254 0.0 0.0 0.00 0.00 0.00
20211128012444 55 254 0.0 0.0 0.00 0.00 0.00
20211128011943 55 254 0.0 0.0 0.00 0.00 0.00
20211128011442 57 254 0.0 0.0 0.00 0.00 0.00
20211128010941 60 254 0.0 0.0 0.00 0.00 0.00
20211128010441 60 254 0.0 0.0 0.00 0.00 0.00
20211128005939 60 254 0.0 0.0 0.00 0.00 0.00
20211128005438 61 254 0.0 0.0 0.00 0.00 0.00
20211128004937 57 254 0.0 0.0 0.00 0.00 0.00
20211128004437 60 254 0.0 2.0 0.00 0.00 0.00
20211128003936 61 244 0.0 3.0 0.00 0.00 0.00
20211128003434 60 246 2.0 4.0 0.00 0.00 0.00
20211128002933 61 243 3.0 3.0 0.00 0.00 0.00
20211128002433 65 248 3.0 4.0 0.00 0.00 0.00
20211128001932 59 234 2.0 5.0 0.00 0.00 0.00
20211128001431 61 251 4.0 5.0 0.00 0.00 0.00
20211128000929 60 241 3.0 5.0 0.00 0.00 0.00
20211128000429 60 253 3.0 7.0 0.00 0.00 0.00
20211127235928 64 257 4.0 6.0 0.00 0.00 0.00
20211127235427 65 261 6.0 5.0 0.00 0.00 0.00
20211127234926 66 262 3.0 4.0 0.00 0.00 0.00
20211127234424 66 277 3.0 7.0 0.00 0.00 0.00
20211127233924 66 278 5.0 6.0 0.00 0.00 0.00
20211127233423 66 262 6.0 7.0 0.00 0.00 0.00
20211127232922 65 261 4.0 7.0 0.00 0.00 0.00
20211127232421 66 268 5.0 7.0 0.00 0.00 0.00
20211127231919 68 260 5.0 5.0 0.00 0.00 0.00
20211127231419 68 262 3.0 5.0 0.00 0.00 0.00
20211127230918 68 234 2.0 6.0 0.00 0.00 0.00
20211127230417 69 261 6.0 6.0 0.00 0.00 0.00
20211127225916 68 274 5.0 8.0 0.00 0.00 0.00
20211127225415 68 265 5.0 7.0 0.00 0.00 0.00
20211127224914 67 261 5.0 10.0 0.00 0.00 0.00
20211127224413 68 241 7.0 6.0 0.00 0.00 0.00
20211127223912 66 225 5.0 6.0 0.00 0.00 0.00
20211127223411 69 251 3.0 9.0 0.00 0.00 0.00
20211127222910 69 227 7.0 7.0 0.00 0.00 0.00
20211127222409 69 260 4.0 7.0 0.00 0.00 0.00
20211127221908 69 282 5.0 9.0 0.00 0.00 0.00
20211127221407 70 253 6.0 9.0 0.00 0.00 0.00
20211127220906 70 237 3.0 4.0 0.00 0.00 0.00
20211127220405 69 288 2.0 10.0 0.00 0.00 0.00
20211127215904 68 265 5.0 8.0 0.00 0.00 0.00
20211127215403 68 299 4.0 9.0 0.00 0.00 0.00
20211127214902 68 288 4.0 10.0 0.00 0.00 0.00
20211127214401 69 254 3.0 9.0 0.00 0.00 0.00
20211127213900 70 246 6.0 7.0 0.00 0.00 0.00
20211127213359 70 192 5.0 8.0 0.00 0.00 0.00
20211127212858 70 247 4.0 8.0 0.00 0.00 0.00
20211127212357 72 299 4.0 7.0 0.00 0.00 0.00
20211127211856 70 278 3.0 6.0 0.00 0.00 0.00
20211127211355 71 232 3.0 4.0 0.00 0.00 0.00
20211127210854 70 143 1.0 7.0 0.00 0.00 0.00
20211127210353 74 156 1.0 5.0 0.00 0.00 0.00
20211127205852 72 254 0.0 6.0 0.00 0.00 0.00
20211127205351 71 215 5.0 6.0 0.00 0.00 0.00
20211127204850 72 265 4.0 8.0 0.00 0.00 0.00
20211127204349 74 258 1.0 7.0 0.00 0.00 0.00
20211127203848 69 198 5.0 5.0 0.00 0.00 0.00
20211127203347 65 233 1.0 7.0 0.00 0.00 0.00
20211127202846 66 227 2.0 7.0 0.00 0.00 0.00
20211127202345 62 127 0.0 7.0 0.00 0.00 0.00
20211127201844 65 184 6.0 5.0 0.00 0.00 0.00
20211127201343 67 205 1.0 7.0 0.00 0.00 0.00
20211127200842 68 250 2.0 6.0 0.00 0.00 0.00
20211127200342 66 191 2.0 6.0 0.00 0.00 0.00
20211127195840 67 225 2.0 5.0 0.00 0.00 0.00
20211127195339 62 146 3.0 7.0 0.00 0.00 0.00
20211127194838 63 223 6.0 6.0 0.00 0.00 0.00
20211127194337 65 212 4.0 8.0 0.00 0.00 0.00
20211127193837 65 223 5.0 7.0 0.00 0.00 0.00
20211127193335 68 185 0.0 5.0 0.00 0.00 0.00
20211127192834 68 220 4.0 5.0 0.00 0.00 0.00
20211127192333 68 223 2.0 8.0 0.00 0.00 0.00
20211127191833 68 174 5.0 5.0 0.00 0.00 0.00
20211127191332 66 172 3.0 6.0 0.00 0.00 0.00
20211127190830 66 227 2.0 5.0 0.00 0.00 0.00
20211127190329 68 198 1.0 6.0 0.00 0.00 0.00
20211127185829 71 161 4.0 4.0 0.00 0.00 0.00
20211127185328 70 115 1.0 5.0 0.00 0.00 0.00
20211127184827 70 163 3.0 6.0 0.00 0.00 0.00
20211127184325 69 191 2.0 4.0 0.00 0.00 0.00
20211127183824 66 237 1.0 7.0 0.00 0.00 0.00
20211127183324 60 198 1.0 5.0 0.00 0.00 0.00
20211127182823 63 198 0.0 6.0 0.00 0.00 0.00
20211127182322 66 226 4.0 5.0 0.00 0.00 0.00
20211127181820 65 171 3.0 7.0 0.00 0.00 0.00
20211127181320 63 188 6.0 8.0 0.00 0.00 0.00
20211127180819 64 199 8.0 7.0 0.00 0.00 0.00
20211127180318 63 222 4.0 6.0 0.00 0.00 0.00
20211127175817 63 232 0.0 6.0 0.00 0.00 0.00
20211127175316 64 156 1.0 7.0 0.00 0.00 0.00
20211127174815 65 205 3.0 7.0 0.00 0.00 0.00
20211127174314 65 191 6.0 8.0 0.00 0.00 0.00
20211127173813 64 215 7.0 8.0 0.00 0.00 0.00
20211127173312 64 157 3.0 8.0 0.00 0.00 0.00
20211127172811 64 181 5.0 8.0 0.00 0.00 0.00
20211127172310 62 181 6.0 8.0 0.00 0.00 0.00
20211127171809 63 223 5.0 9.0 0.00 0.00 0.00
20211127171308 63 213 6.0 7.0 0.00 0.00 0.00
20211127170807 62 172 5.0 8.0 0.00 0.00 0.00
20211127170306 61 205 6.0 8.0 0.00 0.00 0.00
20211127165805 62 181 4.0 8.0 0.00 0.00 0.00
20211127165305 60 177 4.0 8.0 0.00 0.00 0.00
20211127164803 59 167 5.0 8.0 0.00 0.00 0.00
20211127164302 61 222 5.0 7.0 0.00 0.00 0.00
20211127163801 60 203 5.0 7.0 0.00 0.00 0.00
20211127163300 61 227 3.0 7.0 0.00 0.00 0.00
20211127162759 60 184 4.0 3.0 0.00 0.00 0.00
20211127162258 62 226 0.0 4.0 0.00 0.00 0.00
20211127161756 63 258 2.0 3.0 0.00 0.00 0.00
20211127161255 67 243 0.0 2.0 0.00 0.00 0.00
20211127160754 67 277 0.0 0.0 0.00 0.00 0.00
20211127160253 67 277 0.0 0.0 0.00 0.00 0.00
20211127155752 66 260 0.0 0.0 0.00 0.00 0.00
20211127155251 63 260 0.0 0.0 0.00 0.00 0.00
20211127154750 62 260 0.0 0.0 0.00 0.00 0.00
20211127154249 61 260 0.0 0.0 0.00 0.00 0.00
20211127153748 59 260 0.0 0.0 0.00 0.00 0.00
20211127153247 59 85 0.0 0.0 0.00 0.00 0.00
20211127152746 58 85 0.0 0.0 0.00 0.00 0.00
20211127152245 55 85 0.0 0.0 0.00 0.00 0.00
20211127151744 54 85 0.0 0.0 0.00 0.00 0.00
20211127151243 52 85 0.0 0.0 0.00 0.00 0.00
20211127150742 51 85 0.0 2.0 0.00 0.00 0.00
20211127150242 50 56 0.0 3.0 0.00 0.00 0.00
20211127145740 50 97 2.0 2.0 0.00 0.00 0.00
20211127145239 50 313 0.0 1.0 0.00 0.00 0.00
20211127144738 49 313 0.0 2.0 0.00 0.00 0.00
20211127144237 48 268 0.0 2.0 0.00 0.00 0.00
20211127143737 48 303 0.0 2.0 0.00 0.00 0.00
20211127143235 47 302 1.0 5.0 0.00 0.00 0.00
20211127142734 47 296 5.0 4.0 0.00 0.00 0.00
20211127142233 48 322 3.0 5.0 0.00 0.00 0.00
20211127141733 48 326 5.0 5.0 0.00 0.00 0.00
20211127141232 48 310 4.0 7.0 0.00 0.00 0.00
20211127140730 48 317 6.0 8.0 0.00 0.00 0.00
20211127140229 47 327 5.0 8.0 0.00 0.00 0.00
20211127135729 44 317 6.0 6.0 0.00 0.00 0.00
20211127135228 37 302 5.0 5.0 0.00 0.00 0.00
20211127134727 35 293 4.0 4.0 0.00 0.00 0.00
20211127134225 37 313 2.0 3.0 0.00 0.00 0.00
20211127133724 38 310 2.0 4.0 0.00 0.00 0.00
20211127133224 40 334 3.0 5.0 0.00 0.00 0.00
20211127132723 41 312 5.0 4.0 0.00 0.00 0.00
20211127132222 41 315 3.0 3.0 0.00 0.00 0.00
20211127131720 41 317 3.0 5.0 0.00 0.00 0.00
20211127131220 41 320 4.0 7.0 0.00 0.00 0.00
20211127130719 42 333 6.0 7.0 0.00 0.00 0.00
20211127130218 37 310 6.0 7.0 0.00 0.00 0.00
20211127125717 39 295 7.0 6.0 0.00 0.00 0.00
20211127125216 39 296 6.0 6.0 0.00 0.00 0.00
20211127124715 40 313 4.0 7.0 0.00 0.00 0.00
20211127124214 40 331 3.0 6.0 0.00 0.00 0.00
20211127123713 42 303 5.0 6.0 0.00 0.00 0.00
20211127123212 38 312 5.0 7.0 0.00 0.00 0.00
20211127122711 39 319 5.0 6.0 0.00 0.00 0.00
20211127122210 43 300 2.0 3.0 0.00 0.00 0.00
20211127121709 44 279 0.0 0.0 0.00 0.00 0.00
20211127121208 44 322 0.0 0.0 0.00 0.00 0.00
20211127120707 40 322 0.0 0.0 0.00 0.00 0.00
20211127120206 43 322 0.0 2.0 0.00 0.00 0.00
20211127115705 45 345 1.0 4.0 0.00 0.00 0.00
20211127115204 45 307 3.0 4.0 0.00 0.00 0.00
20211127114703 46 298 3.0 6.0 0.00 0.00 0.00
20211127114202 47 309 6.0 6.0 0.00 0.00 0.00
20211127113701 47 300 3.0 1.0 0.00 0.00 0.00
20211127113200 47 71 0.0 2.0 0.00 0.00 0.00
20211127112659 48 77 2.0 2.0 0.00 0.00 0.00
20211127112158 48 9 0.0 2.0 0.00 0.00 0.00
20211127111657 48 0 2.0 2.0 0.00 0.00 0.00
20211127111156 41 337 1.0 3.0 0.00 0.00 0.00
20211127110655 41 358 2.0 3.0 0.00 0.00 0.00
20211127110154 42 338 3.0 5.0 0.00 0.00 0.00
20211127105653 45 310 5.0 5.0 0.00 0.00 0.00
20211127105153 42 303 4.0 5.0 0.00 0.00 0.00
20211127104651 38 299 5.0 6.0 0.00 0.00 0.00
20211127104150 39 305 4.0 3.0 0.00 0.00 0.00
20211127103649 39 307 2.0 2.0 0.00 0.00 0.00
20211127103149 42 32 0.0 1.0 0.00 0.00 0.00
20211127102648 45 46 1.0 1.0 0.00 0.00 0.00
20211127102146 43 300 0.0 1.0 0.00 0.00 0.00
20211127101645 43 322 0.0 4.0 0.00 0.00 0.00
20211127101144 43 296 4.0 5.0 0.00 0.00 0.00
20211127100644 44 307 5.0 6.0 0.00 0.00 0.00
20211127100143 44 306 6.0 5.0 0.00 0.00 0.00
20211127095641 43 307 3.0 4.0 0.00 0.00 0.00
20211127095140 44 303 2.0 3.0 0.00 0.00 0.00
20211127094640 44 12 2.0 2.0 0.00 0.00 0.00
20211127094139 45 312 2.0 3.0 0.00 0.00 0.00
20211127093638 45 2 2.0 3.0 0.00 0.00 0.00
20211127093136 44 316 2.0 4.0 0.00 0.00 0.00
20211127092635 48 21 3.0 5.0 0.00 0.00 0.00
20211127092135 50 316 1.0 5.0 0.00 0.00 0.00
20211127091634 49 347 2.0 5.0 0.00 0.00 0.00
20211127091133 47 298 4.0 7.0 0.00 0.00 0.00
20211127090631 48 285 5.0 6.0 0.00 0.00 0.00
20211127090131 50 313 6.0 6.0 0.00 0.00 0.00
20211127085630 50 302 6.0 7.0 0.00 0.00 0.00
20211127085129 50 302 6.0 6.0 0.00 0.00 0.00
20211127084628 50 317 5.0 5.0 0.00 0.00 0.00
20211127084127 51 307 3.0 4.0 0.00 0.00 0.00